Time,TemperatureF,DewpointF,PressureIn,WindDirection,WindDirectionDegrees,WindSpeedMPH,WindSpeedGustMPH,Humidity,HourlyPrecipIn,Conditions,Clouds,dailyrainin,SoftwareType,DateUTC
2013-03-12 00:00:00,38.2,33.5,29.65,SW,222,9.0,13.0,83,0.00,,,0.00,Wunderground v.1.15,2013-03-12 04:00:00,
2013-03-12 00:01:00,38.2,33.5,29.65,SW,216,9.0,13.0,83,0.00,,,0.00,Wunderground v.1.15,2013-03-12 04:01:00,
2013-03-12 00:03:00,38.2,33.5,29.65,SSW,204,8.0,13.0,83,0.00,,,0.00,Wunderground v.1.15,2013-03-12 04:03:00,
2013-03-12 00:05:00,38.2,33.5,29.65,SW,236,9.0,13.0,83,0.00,,,0.00,Wunderground v.1.15,2013-03-12 04:05:00,
2013-03-12 00:10:00,38.1,33.4,29.65,SW,214,9.0,11.0,83,0.00,,,0.00,Wunderground v.1.15,2013-03-12 04:10:00,
2013-03-12 00:16:00,38.1,33.4,29.65,SSW,213,9.0,11.0,83,0.00,,,0.00,Wunderground v.1.15,2013-03-12 04:16:00,
2013-03-12 00:21:00,38.1,33.4,29.65,SW,233,9.0,12.0,83,0.00,,,0.00,Wunderground v.1.15,2013-03-12 04:21:00,
2013-03-12 00:27:00,38.1,33.7,29.65,SSW,205,11.0,12.0,84,0.00,,,0.00,Wunderground v.1.15,2013-03-12 04:27:00,
2013-03-12 00:32:00,38.0,33.6,29.65,WSW,240,10.0,15.0,84,0.00,,,0.00,Wunderground v.1.15,2013-03-12 04:32:00,
2013-03-12 00:37:00,38.0,33.6,29.66,WNW,294,10.0,15.0,84,0.00,,,0.00,Wunderground v.1.15,2013-03-12 04:37:00,
2013-03-12 00:43:00,38.0,33.6,29.66,SW,220,10.0,15.0,84,0.00,,,0.00,Wunderground v.1.15,2013-03-12 04:43:00,
2013-03-12 00:48:00,38.0,33.6,29.66,SW,223,10.0,15.0,84,0.00,,,0.00,Wunderground v.1.15,2013-03-12 04:48:00,
2013-03-12 00:54:00,38.0,33.6,29.66,SSW,194,9.0,11.0,84,0.00,,,0.00,Wunderground v.1.15,2013-03-12 04:54:00,
2013-03-12 00:59:00,38.0,33.6,29.66,WSW,246,7.0,11.0,84,0.00,,,0.00,Wunderground v.1.15,2013-03-12 04:59:00,
2013-03-12 01:05:00,37.9,33.5,29.66,SW,219,6.0,10.0,84,0.00,,,0.00,Wunderground v.1.15,2013-03-12 05:05:00,
2013-03-12 01:11:00,37.9,33.5,29.66,WSW,240,8.0,8.0,84,0.00,,,0.00,Wunderground v.1.15,2013-03-12 05:11:00,
2013-03-12 01:17:00,37.9,33.5,29.66,SW,228,8.0,10.0,84,0.00,,,0.00,Wunderground v.1.15,2013-03-12 05:17:00,
2013-03-12 01:23:00,37.9,33.5,29.66,SW,223,8.0,9.0,84,0.00,,,0.00,Wunderground v.1.15,2013-03-12 05:23:00,
2013-03-12 01:29:00,37.9,33.5,29.66,SSW,208,8.0,13.0,84,0.00,,,0.00,Wunderground v.1.15,2013-03-12 05:29:00,
2013-03-12 01:34:00,37.9,33.5,29.66,SW,234,8.0,12.0,84,0.00,,,0.00,Wunderground v.1.15,2013-03-12 05:34:00,
2013-03-12 01:40:00,37.9,33.5,29.66,SW,232,8.0,10.0,84,0.00,,,0.00,Wunderground v.1.15,2013-03-12 05:40:00,
2013-03-12 01:45:00,37.8,33.4,29.67,SW,221,8.0,10.0,84,0.00,,,0.00,Wunderground v.1.15,2013-03-12 05:45:00,
2013-03-12 01:51:00,37.8,33.4,29.67,WSW,241,8.0,9.0,84,0.00,,,0.00,Wunderground v.1.15,2013-03-12 05:51:00,
2013-03-12 01:56:00,37.8,33.4,29.67,SW,221,8.0,14.0,84,0.00,,,0.00,Wunderground v.1.15,2013-03-12 05:56:00,
2013-03-12 02:02:00,37.8,33.4,29.67,SSW,211,8.0,8.0,84,0.00,,,0.00,Wunderground v.1.15,2013-03-12 06:02:00,
2013-03-12 02:07:00,37.7,33.0,29.67,SW,215,7.0,12.0,83,0.00,,,0.00,Wunderground v.1.15,2013-03-12 06:07:00,
2013-03-12 02:13:00,37.7,33.0,29.68,SW,225,7.0,8.0,83,0.00,,,0.00,Wunderground v.1.15,2013-03-12 06:13:00,
2013-03-12 02:18:00,37.7,33.3,29.68,SW,227,6.0,10.0,84,0.00,,,0.00,Wunderground v.1.15,2013-03-12 06:18:00,
2013-03-12 02:23:00,37.5,33.1,29.68,SW,221,5.0,7.0,84,0.00,,,0.00,Wunderground v.1.15,2013-03-12 06:23:00,
2013-03-12 02:28:00,37.3,33.2,29.68,WNW,284,5.0,8.0,85,0.00,,,0.00,Wunderground v.1.15,2013-03-12 06:28:00,
2013-03-12 02:34:00,37.0,33.2,29.68,WSW,248,5.0,8.0,86,0.00,,,0.00,Wunderground v.1.15,2013-03-12 06:34:00,
2013-03-12 02:40:00,36.9,33.4,29.68,WNW,283,5.0,5.0,87,0.00,,,0.00,Wunderground v.1.15,2013-03-12 06:40:00,
2013-03-12 02:46:00,36.9,33.4,29.69,WSW,246,5.0,11.0,87,0.00,,,0.00,Wunderground v.1.15,2013-03-12 06:46:00,
2013-03-12 02:52:00,37.0,33.5,29.69,WSW,254,6.0,6.0,87,0.00,,,0.00,Wunderground v.1.15,2013-03-12 06:52:00,
2013-03-12 02:57:00,37.0,33.5,29.69,SW,233,5.0,8.0,87,0.00,,,0.00,Wunderground v.1.15,2013-03-12 06:57:00,
2013-03-12 03:03:00,37.0,33.5,29.69,WSW,237,5.0,7.0,87,0.00,,,0.00,Wunderground v.1.15,2013-03-12 07:03:00,
2013-03-12 03:08:00,36.9,33.4,29.70,West,275,6.0,9.0,87,0.00,,,0.00,Wunderground v.1.15,2013-03-12 07:08:00,
2013-03-12 03:13:00,36.8,33.6,29.70,West,273,6.0,9.0,88,0.00,,,0.00,Wunderground v.1.15,2013-03-12 07:13:00,
2013-03-12 03:19:00,36.8,33.6,29.70,SW,221,5.0,9.0,88,0.00,,,0.00,Wunderground v.1.15,2013-03-12 07:19:00,
2013-03-12 03:24:00,36.7,33.5,29.70,West,281,6.0,11.0,88,0.00,,,0.00,Wunderground v.1.15,2013-03-12 07:24:00,
2013-03-12 03:30:00,36.6,33.4,29.70,SW,224,8.0,12.0,88,0.00,,,0.00,Wunderground v.1.15,2013-03-12 07:30:00,
2013-03-12 03:37:00,36.6,33.1,29.69,WSW,253,9.0,12.0,87,0.00,,,0.00,Wunderground v.1.15,2013-03-12 07:37:00,
2013-03-12 03:42:00,36.6,32.8,29.70,West,279,8.0,11.0,86,0.00,,,0.00,Wunderground v.1.15,2013-03-12 07:42:00,
2013-03-12 03:48:00,36.5,32.7,29.70,WSW,254,9.0,12.0,86,0.00,,,0.00,Wunderground v.1.15,2013-03-12 07:48:00,
2013-03-12 03:53:00,36.4,32.6,29.70,WSW,241,9.0,11.0,86,0.00,,,0.00,Wunderground v.1.15,2013-03-12 07:53:00,
2013-03-12 03:58:00,36.3,32.5,29.70,West,270,7.0,11.0,86,0.00,,,0.00,Wunderground v.1.15,2013-03-12 07:58:00,
2013-03-12 04:04:00,36.2,32.4,29.70,SW,223,6.0,9.0,86,0.00,,,0.00,Wunderground v.1.15,2013-03-12 08:04:00,
2013-03-12 04:10:00,36.2,32.4,29.70,SW,234,7.0,10.0,86,0.00,,,0.00,Wunderground v.1.15,2013-03-12 08:10:00,
2013-03-12 04:15:00,36.1,32.3,29.70,West,264,8.0,12.0,86,0.00,,,0.00,Wunderground v.1.15,2013-03-12 08:15:00,
2013-03-12 04:21:00,36.0,32.2,29.71,WSW,244,7.0,7.0,86,0.00,,,0.00,Wunderground v.1.15,2013-03-12 08:21:00,
2013-03-12 04:27:00,35.9,32.1,29.71,West,263,8.0,14.0,86,0.00,,,0.00,Wunderground v.1.15,2013-03-12 08:27:00,
2013-03-12 04:33:00,35.9,32.1,29.70,SW,219,9.0,9.0,86,0.00,,,0.00,Wunderground v.1.15,2013-03-12 08:33:00,
2013-03-12 04:39:00,35.9,31.8,29.70,West,267,9.0,16.0,85,0.00,,,0.00,Wunderground v.1.15,2013-03-12 08:39:00,
2013-03-12 04:45:00,35.9,31.8,29.71,West,266,10.0,14.0,85,0.00,,,0.00,Wunderground v.1.15,2013-03-12 08:45:00,
2013-03-12 04:51:00,35.9,31.8,29.71,WSW,252,7.0,7.0,85,0.00,,,0.00,Wunderground v.1.15,2013-03-12 08:51:00,
2013-03-12 04:56:00,35.9,31.8,29.71,WSW,246,6.0,9.0,85,0.00,,,0.00,Wunderground v.1.15,2013-03-12 08:56:00,
2013-03-12 05:02:00,35.8,31.7,29.71,SW,227,7.0,10.0,85,0.00,,,0.00,Wunderground v.1.15,2013-03-12 09:02:00,
2013-03-12 05:08:00,35.7,31.6,29.72,West,272,8.0,10.0,85,0.00,,,0.00,Wunderground v.1.15,2013-03-12 09:08:00,
2013-03-12 05:14:00,35.7,31.6,29.72,SW,234,6.0,11.0,85,0.00,,,0.00,Wunderground v.1.15,2013-03-12 09:14:00,
2013-03-12 05:20:00,35.7,31.6,29.72,SW,231,6.0,8.0,85,0.00,,,0.00,Wunderground v.1.15,2013-03-12 09:20:00,
2013-03-12 05:26:00,35.7,31.6,29.72,WSW,252,7.0,11.0,85,0.00,,,0.00,Wunderground v.1.15,2013-03-12 09:26:00,
2013-03-12 05:31:00,35.7,31.6,29.72,WSW,244,7.0,10.0,85,0.00,,,0.00,Wunderground v.1.15,2013-03-12 09:31:00,
2013-03-12 05:36:00,35.7,31.3,29.73,SW,224,8.0,15.0,84,0.00,,,0.00,Wunderground v.1.15,2013-03-12 09:36:00,
2013-03-12 05:42:00,35.6,31.2,29.73,SSW,209,9.0,9.0,84,0.00,,,0.00,Wunderground v.1.15,2013-03-12 09:42:00,
2013-03-12 05:48:00,35.6,31.2,29.73,West,269,8.0,10.0,84,0.00,,,0.00,Wunderground v.1.15,2013-03-12 09:48:00,
2013-03-12 05:53:00,35.6,31.2,29.73,SW,221,8.0,11.0,84,0.00,,,0.00,Wunderground v.1.15,2013-03-12 09:53:00,
2013-03-12 05:58:00,35.6,31.2,29.73,SW,224,9.0,12.0,84,0.00,,,0.00,Wunderground v.1.15,2013-03-12 09:58:00,
2013-03-12 06:03:00,35.6,31.2,29.73,SW,226,8.0,9.0,84,0.00,,,0.00,Wunderground v.1.15,2013-03-12 10:03:00,
2013-03-12 06:09:00,35.6,30.9,29.73,SW,223,8.0,11.0,83,0.00,,,0.00,Wunderground v.1.15,2013-03-12 10:09:00,
2013-03-12 06:15:00,35.6,30.9,29.74,SW,227,7.0,9.0,83,0.00,,,0.00,Wunderground v.1.15,2013-03-12 10:15:00,
2013-03-12 06:20:00,35.6,30.9,29.74,SW,232,7.0,7.0,83,0.00,,,0.00,Wunderground v.1.15,2013-03-12 10:20:00,
2013-03-12 06:25:00,35.6,30.9,29.74,SW,232,8.0,11.0,83,0.00,,,0.00,Wunderground v.1.15,2013-03-12 10:25:00,
2013-03-12 06:30:00,35.6,30.9,29.74,WSW,251,8.0,8.0,83,0.00,,,0.00,Wunderground v.1.15,2013-03-12 10:30:00,
2013-03-12 06:36:00,35.6,30.9,29.75,SW,217,7.0,8.0,83,0.00,,,0.00,Wunderground v.1.15,2013-03-12 10:36:00,
2013-03-12 06:42:00,35.6,30.9,29.75,SW,219,6.0,7.0,83,0.00,,,0.00,Wunderground v.1.15,2013-03-12 10:42:00,
2013-03-12 06:47:00,35.6,30.9,29.75,SW,215,7.0,10.0,83,0.00,,,0.00,Wunderground v.1.15,2013-03-12 10:47:00,
2013-03-12 06:53:00,35.6,30.9,29.75,WSW,241,7.0,10.0,83,0.00,,,0.00,Wunderground v.1.15,2013-03-12 10:53:00,
2013-03-12 06:58:00,35.6,30.9,29.75,WSW,242,7.0,11.0,83,0.00,,,0.00,Wunderground v.1.15,2013-03-12 10:58:00,
2013-03-12 07:04:00,35.5,31.1,29.75,WSW,252,8.0,14.0,84,0.00,,,0.00,Wunderground v.1.15,2013-03-12 11:04:00,
2013-03-12 07:10:00,35.5,31.1,29.76,WSW,254,7.0,7.0,84,0.00,,,0.00,Wunderground v.1.15,2013-03-12 11:10:00,
2013-03-12 07:15:00,35.5,31.1,29.76,SW,227,7.0,9.0,84,0.00,,,0.00,Wunderground v.1.15,2013-03-12 11:15:00,
2013-03-12 07:21:00,35.5,30.8,29.76,WNW,299,7.0,7.0,83,0.00,,,0.00,Wunderground v.1.15,2013-03-12 11:21:00,
2013-03-12 07:27:00,35.5,30.8,29.76,West,263,7.0,8.0,83,0.00,,,0.00,Wunderground v.1.15,2013-03-12 11:27:00,
2013-03-12 07:33:00,35.5,30.8,29.76,SW,221,6.0,11.0,83,0.00,,,0.00,Wunderground v.1.15,2013-03-12 11:33:00,
2013-03-12 07:38:00,35.4,30.8,29.76,SW,236,7.0,12.0,83,0.00,,,0.00,Wunderground v.1.15,2013-03-12 11:38:00,
2013-03-12 07:44:00,35.4,30.8,29.76,SSW,213,8.0,12.0,83,0.00,,,0.00,Wunderground v.1.15,2013-03-12 11:44:00,
2013-03-12 07:49:00,35.3,30.7,29.76,SW,233,8.0,13.0,83,0.00,,,0.00,Wunderground v.1.15,2013-03-12 11:49:00,
2013-03-12 07:55:00,35.3,30.7,29.76,West,267,6.0,11.0,83,0.00,,,0.00,Wunderground v.1.15,2013-03-12 11:55:00,
2013-03-12 08:00:00,35.2,30.6,29.76,West,277,6.0,8.0,83,0.00,,,0.00,Wunderground v.1.15,2013-03-12 12:00:00,
2013-03-12 08:05:00,35.2,30.6,29.77,SW,221,7.0,12.0,83,0.00,,,0.00,Wunderground v.1.15,2013-03-12 12:05:00,
2013-03-12 08:11:00,35.1,30.5,29.77,WNW,294,6.0,6.0,83,0.00,,,0.00,Wunderground v.1.15,2013-03-12 12:11:00,
2013-03-12 08:17:00,35.0,30.4,29.77,West,274,6.0,8.0,83,0.00,,,0.00,Wunderground v.1.15,2013-03-12 12:17:00,
2013-03-12 08:22:00,35.0,30.4,29.77,SW,217,7.0,9.0,83,0.00,,,0.00,Wunderground v.1.15,2013-03-12 12:22:00,
2013-03-12 08:27:00,35.0,30.1,29.77,WSW,252,7.0,9.0,82,0.00,,,0.00,Wunderground v.1.15,2013-03-12 12:27:00,
2013-03-12 08:33:00,35.1,30.2,29.78,WNW,284,6.0,9.0,82,0.00,,,0.00,Wunderground v.1.15,2013-03-12 12:33:00,
2013-03-12 08:38:00,35.1,30.2,29.78,WNW,286,7.0,10.0,82,0.00,,,0.00,Wunderground v.1.15,2013-03-12 12:38:00,
2013-03-12 08:44:00,35.1,30.2,29.78,WSW,242,7.0,9.0,82,0.00,,,0.00,Wunderground v.1.15,2013-03-12 12:44:00,
2013-03-12 08:50:00,35.0,29.8,29.78,SSW,195,9.0,9.0,81,0.00,,,0.00,Wunderground v.1.15,2013-03-12 12:50:00,
2013-03-12 08:55:00,35.0,29.8,29.79,West,270,8.0,9.0,81,0.00,,,0.00,Wunderground v.1.15,2013-03-12 12:55:00,
2013-03-12 09:00:00,35.0,29.8,29.79,WNW,291,6.0,10.0,81,0.00,,,0.00,Wunderground v.1.15,2013-03-12 13:00:00,
2013-03-12 09:06:00,35.1,30.2,29.79,WSW,251,5.0,12.0,82,0.00,,,0.00,Wunderground v.1.15,2013-03-12 13:06:00,
2013-03-12 09:12:00,34.9,30.0,29.79,WSW,255,6.0,6.0,82,0.00,,,0.00,Wunderground v.1.15,2013-03-12 13:12:00,
2013-03-12 09:18:00,34.8,29.9,29.79,NW,321,6.0,11.0,82,0.00,,,0.00,Wunderground v.1.15,2013-03-12 13:18:00,
2013-03-12 09:24:00,34.8,30.2,29.79,WNW,284,5.0,7.0,83,0.00,,,0.00,Wunderground v.1.15,2013-03-12 13:24:00,
2013-03-12 09:29:00,34.8,30.5,29.80,WSW,250,5.0,8.0,84,0.00,,,0.00,Wunderground v.1.15,2013-03-12 13:29:00,
2013-03-12 09:34:00,34.8,30.5,29.80,WSW,246,5.0,7.0,84,0.00,,,0.00,Wunderground v.1.15,2013-03-12 13:34:00,
2013-03-12 09:40:00,34.8,30.5,29.80,West,275,5.0,5.0,84,0.00,,,0.00,Wunderground v.1.15,2013-03-12 13:40:00,
2013-03-12 09:45:00,34.8,30.5,29.80,WSW,244,6.0,9.0,84,0.00,,,0.00,Wunderground v.1.15,2013-03-12 13:45:00,
2013-03-12 09:50:00,34.8,30.8,29.80,WSW,258,6.0,8.0,85,0.00,,,0.00,Wunderground v.1.15,2013-03-12 13:50:00,
2013-03-12 09:56:00,34.7,30.7,29.81,WNW,289,7.0,10.0,85,0.00,,,0.00,Wunderground v.1.15,2013-03-12 13:56:00,
2013-03-12 10:02:00,34.7,30.9,29.81,NNW,341,7.0,7.0,86,0.00,,,0.00,Wunderground v.1.15,2013-03-12 14:02:00,
2013-03-12 10:07:00,34.8,31.0,29.81,WSW,243,6.0,9.0,86,0.00,,,0.00,Wunderground v.1.15,2013-03-12 14:07:00,
2013-03-12 10:12:00,34.8,31.0,29.81,West,266,5.0,5.0,86,0.00,,,0.00,Wunderground v.1.15,2013-03-12 14:12:00,
2013-03-12 10:17:00,34.8,31.0,29.81,SW,227,5.0,12.0,86,0.00,,,0.00,Wunderground v.1.15,2013-03-12 14:17:00,
2013-03-12 10:23:00,34.9,31.1,29.81,SW,235,6.0,6.0,86,0.00,,,0.00,Wunderground v.1.15,2013-03-12 14:23:00,
2013-03-12 10:28:00,35.0,30.9,29.81,SW,228,7.0,8.0,85,0.00,,,0.00,Wunderground v.1.15,2013-03-12 14:28:00,
2013-03-12 10:33:00,35.0,30.9,29.81,SW,227,6.0,6.0,85,0.00,,,0.00,Wunderground v.1.15,2013-03-12 14:33:00,
2013-03-12 10:38:00,35.1,30.8,29.81,West,265,6.0,6.0,84,0.00,,,0.00,Wunderground v.1.15,2013-03-12 14:38:00,
2013-03-12 10:44:00,35.2,31.1,29.81,SW,224,5.0,5.0,85,0.00,,,0.00,Wunderground v.1.15,2013-03-12 14:44:00,
2013-03-12 10:49:00,35.2,31.1,29.81,SW,225,5.0,9.0,85,0.00,,,0.00,Wunderground v.1.15,2013-03-12 14:49:00,
2013-03-12 10:54:00,35.0,30.9,29.82,SSW,211,7.0,9.0,85,0.00,,,0.00,Wunderground v.1.15,2013-03-12 14:54:00,
2013-03-12 11:00:00,34.6,31.1,29.82,West,263,7.0,7.0,87,0.00,,,0.00,Wunderground v.1.15,2013-03-12 15:00:00,
2013-03-12 11:05:00,34.4,31.2,29.82,SW,225,6.0,7.0,88,0.00,,,0.00,Wunderground v.1.15,2013-03-12 15:05:00,
2013-03-12 11:10:00,34.3,31.4,29.82,SW,224,5.0,5.0,89,0.00,,,0.00,Wunderground v.1.15,2013-03-12 15:10:00,
2013-03-12 11:16:00,34.3,31.7,29.82,WSW,255,4.0,5.0,90,0.00,,,0.00,Wunderground v.1.15,2013-03-12 15:16:00,
2013-03-12 11:21:00,34.3,31.7,29.82,West,265,5.0,10.0,90,0.00,,,0.00,Wunderground v.1.15,2013-03-12 15:21:00,
2013-03-12 11:26:00,33.9,31.6,29.82,West,262,6.0,10.0,91,0.00,,,0.00,Wunderground v.1.15,2013-03-12 15:26:00,
2013-03-12 11:31:00,33.6,31.3,29.82,West,279,6.0,6.0,91,0.00,,,0.00,Wunderground v.1.15,2013-03-12 15:31:00,
2013-03-12 11:37:00,33.6,31.5,29.82,West,281,4.0,7.0,92,0.00,,,0.00,Wunderground v.1.15,2013-03-12 15:37:00,
2013-03-12 11:42:00,33.6,31.5,29.82,West,267,4.0,8.0,92,0.00,,,0.00,Wunderground v.1.15,2013-03-12 15:42:00,
2013-03-12 11:47:00,33.5,31.4,29.82,SW,223,6.0,10.0,92,0.00,,,0.00,Wunderground v.1.15,2013-03-12 15:47:00,
2013-03-12 11:52:00,33.4,31.3,29.82,West,271,6.0,8.0,92,0.00,,,0.00,Wunderground v.1.15,2013-03-12 15:52:00,
2013-03-12 11:57:00,33.5,31.4,29.82,WSW,246,6.0,10.0,92,0.00,,,0.00,Wunderground v.1.15,2013-03-12 15:57:00,
2013-03-12 12:03:00,33.4,31.3,29.82,WSW,246,6.0,9.0,92,0.00,,,0.00,Wunderground v.1.15,2013-03-12 16:03:00,
2013-03-12 12:08:00,33.4,31.6,29.83,SW,232,6.0,9.0,93,0.00,,,0.00,Wunderground v.1.15,2013-03-12 16:08:00,
2013-03-12 12:13:00,33.4,31.6,29.83,SW,232,6.0,8.0,93,0.00,,,0.00,Wunderground v.1.15,2013-03-12 16:13:00,
2013-03-12 12:19:00,33.4,31.6,29.83,SW,222,6.0,8.0,93,0.00,,,0.00,Wunderground v.1.15,2013-03-12 16:19:00,
2013-03-12 12:24:00,33.3,31.5,29.83,SW,226,6.0,8.0,93,0.00,,,0.00,Wunderground v.1.15,2013-03-12 16:24:00,
2013-03-12 12:29:00,33.3,31.5,29.83,SW,220,5.0,8.0,93,0.00,,,0.00,Wunderground v.1.15,2013-03-12 16:29:00,
2013-03-12 12:34:00,33.5,31.7,29.83,SSW,207,5.0,5.0,93,0.00,,,0.00,Wunderground v.1.15,2013-03-12 16:34:00,
2013-03-12 12:39:00,33.7,31.9,29.82,SW,236,5.0,5.0,93,0.00,,,0.00,Wunderground v.1.15,2013-03-12 16:39:00,
2013-03-12 12:45:00,34.3,32.5,29.82,West,271,5.0,8.0,93,0.00,,,0.01,Wunderground v.1.15,2013-03-12 16:45:00,
2013-03-12 12:50:00,34.7,32.3,29.82,NNE,17,6.0,6.0,91,0.00,,,0.01,Wunderground v.1.15,2013-03-12 16:50:00,
2013-03-12 12:56:00,35.0,32.1,29.83,West,264,7.0,17.0,89,0.00,,,0.01,Wunderground v.1.15,2013-03-12 16:56:00,
2013-03-12 13:02:00,35.2,31.7,29.83,WSW,254,7.0,8.0,87,0.05,,,0.02,Wunderground v.1.15,2013-03-12 17:02:00,
2013-03-12 13:07:00,35.6,32.1,29.83,WSW,253,7.0,9.0,87,0.05,,,0.02,Wunderground v.1.15,2013-03-12 17:07:00,
2013-03-12 13:12:00,35.9,31.8,29.83,SW,219,7.0,11.0,85,0.04,,,0.02,Wunderground v.1.15,2013-03-12 17:12:00,
2013-03-12 13:18:00,35.7,31.3,29.83,SW,230,8.0,17.0,84,0.00,,,0.02,Wunderground v.1.15,2013-03-12 17:18:00,
2013-03-12 13:23:00,36.0,31.3,29.83,WSW,238,8.0,9.0,83,0.00,,,0.03,Wunderground v.1.15,2013-03-12 17:23:00,
2013-03-12 13:29:00,36.3,31.0,29.83,SSW,200,8.0,13.0,81,0.00,,,0.03,Wunderground v.1.15,2013-03-12 17:29:00,
2013-03-12 13:34:00,36.6,31.0,29.83,SW,232,8.0,13.0,80,0.00,,,0.03,Wunderground v.1.15,2013-03-12 17:34:00,
2013-03-12 13:39:00,36.7,30.8,29.83,SSW,194,9.0,14.0,79,0.00,,,0.03,Wunderground v.1.15,2013-03-12 17:39:00,
2013-03-12 13:45:00,36.8,30.6,29.83,SSW,211,11.0,18.0,78,0.00,,,0.03,Wunderground v.1.15,2013-03-12 17:45:00,
2013-03-12 13:51:00,36.6,30.4,29.83,SW,219,10.0,10.0,78,0.00,,,0.03,Wunderground v.1.15,2013-03-12 17:51:00,
2013-03-12 13:57:00,36.5,30.3,29.83,WSW,255,8.0,13.0,78,0.00,,,0.03,Wunderground v.1.15,2013-03-12 17:57:00,
2013-03-12 14:02:00,36.2,30.0,29.83,SW,221,8.0,10.0,78,0.00,,,0.03,Wunderground v.1.15,2013-03-12 18:02:00,
2013-03-12 14:07:00,36.1,30.2,29.83,SW,223,8.0,11.0,79,0.00,,,0.03,Wunderground v.1.15,2013-03-12 18:07:00,
2013-03-12 14:13:00,35.9,30.3,29.83,WSW,238,8.0,12.0,80,0.00,,,0.03,Wunderground v.1.15,2013-03-12 18:13:00,
2013-03-12 14:19:00,36.7,31.7,29.83,WSW,242,7.0,12.0,82,0.00,,,0.03,Wunderground v.1.15,2013-03-12 18:19:00,
2013-03-12 14:24:00,36.6,31.0,29.83,South,184,7.0,13.0,80,0.00,,,0.03,Wunderground v.1.15,2013-03-12 18:24:00,
2013-03-12 14:30:00,36.4,30.5,29.83,SW,231,8.0,8.0,79,0.00,,,0.03,Wunderground v.1.15,2013-03-12 18:30:00,
2013-03-12 14:35:00,36.1,30.2,29.83,WSW,252,9.0,14.0,79,0.00,,,0.03,Wunderground v.1.15,2013-03-12 18:35:00,
2013-03-12 14:40:00,36.1,30.2,29.83,SSW,205,9.0,9.0,79,0.00,,,0.03,Wunderground v.1.15,2013-03-12 18:40:00,
2013-03-12 14:46:00,36.4,30.8,29.83,WSW,252,7.0,9.0,80,0.00,,,0.03,Wunderground v.1.15,2013-03-12 18:46:00,
2013-03-12 14:51:00,36.2,30.3,29.83,SW,216,7.0,11.0,79,0.00,,,0.03,Wunderground v.1.15,2013-03-12 18:51:00,
2013-03-12 14:57:00,35.8,29.9,29.83,WSW,242,10.0,11.0,79,0.00,,,0.03,Wunderground v.1.15,2013-03-12 18:57:00,
2013-03-12 15:02:00,35.7,29.8,29.83,SSW,212,10.0,11.0,79,0.00,,,0.03,Wunderground v.1.15,2013-03-12 19:02:00,
2013-03-12 15:08:00,35.5,29.6,29.83,WSW,246,11.0,18.0,79,0.00,,,0.03,Wunderground v.1.15,2013-03-12 19:08:00,
2013-03-12 15:13:00,35.7,29.8,29.83,SW,216,10.0,11.0,79,0.00,,,0.03,Wunderground v.1.15,2013-03-12 19:13:00,
2013-03-12 15:18:00,35.7,29.8,29.83,SW,229,9.0,11.0,79,0.00,,,0.03,Wunderground v.1.15,2013-03-12 19:18:00,
2013-03-12 15:24:00,35.5,29.9,29.82,SSW,213,8.0,17.0,80,0.00,,,0.03,Wunderground v.1.15,2013-03-12 19:24:00,
2013-03-12 15:29:00,35.2,30.0,29.82,SW,232,9.0,17.0,81,0.00,,,0.03,Wunderground v.1.15,2013-03-12 19:29:00,
2013-03-12 15:35:00,35.1,29.9,29.82,SSW,203,8.0,12.0,81,0.00,,,0.03,Wunderground v.1.15,2013-03-12 19:35:00,
2013-03-12 15:40:00,35.1,30.2,29.83,WSW,247,7.0,13.0,82,0.00,,,0.03,Wunderground v.1.15,2013-03-12 19:40:00,
2013-03-12 15:47:00,34.9,30.0,29.83,WSW,237,7.0,16.0,82,0.00,,,0.03,Wunderground v.1.15,2013-03-12 19:47:00,
2013-03-12 15:52:00,35.0,30.1,29.83,West,261,7.0,9.0,82,0.00,,,0.03,Wunderground v.1.15,2013-03-12 19:52:00,
2013-03-12 15:58:00,35.5,30.2,29.83,WSW,248,6.0,10.0,81,0.00,,,0.03,Wunderground v.1.15,2013-03-12 19:58:00,
2013-03-12 16:03:00,36.1,30.8,29.83,SSW,213,5.0,10.0,81,0.00,,,0.03,Wunderground v.1.15,2013-03-12 20:03:00,
2013-03-12 16:09:00,35.8,29.9,29.83,SW,215,7.0,15.0,79,0.00,,,0.03,Wunderground v.1.15,2013-03-12 20:09:00,
2013-03-12 16:15:00,35.7,29.5,29.83,SW,221,10.0,16.0,78,0.00,,,0.03,Wunderground v.1.15,2013-03-12 20:15:00,
2013-03-12 16:20:00,35.6,29.1,29.83,SW,234,9.0,16.0,77,0.00,,,0.03,Wunderground v.1.15,2013-03-12 20:20:00,
2013-03-12 16:25:00,35.5,29.0,29.83,West,279,8.0,15.0,77,0.00,,,0.03,Wunderground v.1.15,2013-03-12 20:25:00,
2013-03-12 16:31:00,35.4,28.6,29.84,WSW,248,10.0,10.0,76,0.00,,,0.03,Wunderground v.1.15,2013-03-12 20:31:00,
2013-03-12 16:37:00,35.3,28.5,29.84,WSW,240,9.0,18.0,76,0.00,,,0.03,Wunderground v.1.15,2013-03-12 20:37:00,
2013-03-12 16:43:00,35.3,28.8,29.84,West,261,8.0,13.0,77,0.00,,,0.03,Wunderground v.1.15,2013-03-12 20:43:00,
2013-03-12 16:48:00,35.2,28.4,29.84,NNE,29,6.0,14.0,76,0.00,,,0.03,Wunderground v.1.15,2013-03-12 20:48:00,
2013-03-12 16:54:00,35.1,28.3,29.84,WSW,253,7.0,10.0,76,0.00,,,0.03,Wunderground v.1.15,2013-03-12 20:54:00,
2013-03-12 16:59:00,35.1,28.3,29.84,WSW,256,8.0,12.0,76,0.00,,,0.03,Wunderground v.1.15,2013-03-12 20:59:00,
2013-03-12 17:04:00,35.1,28.3,29.85,West,266,7.0,8.0,76,0.00,,,0.03,Wunderground v.1.15,2013-03-12 21:04:00,
2013-03-12 17:09:00,35.2,28.4,29.85,WSW,250,6.0,8.0,76,0.00,,,0.03,Wunderground v.1.15,2013-03-12 21:09:00,
2013-03-12 17:15:00,35.2,28.4,29.85,SW,235,5.0,10.0,76,0.00,,,0.03,Wunderground v.1.15,2013-03-12 21:15:00,
2013-03-12 17:21:00,35.1,28.3,29.85,WSW,238,6.0,8.0,76,0.00,,,0.03,Wunderground v.1.15,2013-03-12 21:21:00,
2013-03-12 17:26:00,35.0,28.2,29.85,North,9,7.0,11.0,76,0.00,,,0.03,Wunderground v.1.15,2013-03-12 21:26:00,
2013-03-12 17:32:00,34.9,28.1,29.85,West,275,6.0,9.0,76,0.00,,,0.03,Wunderground v.1.15,2013-03-12 21:32:00,
2013-03-12 17:38:00,35.0,28.5,29.85,SSW,205,5.0,10.0,77,0.00,,,0.03,Wunderground v.1.15,2013-03-12 21:38:00,
2013-03-12 17:44:00,34.9,28.1,29.85,SW,232,7.0,10.0,76,0.00,,,0.03,Wunderground v.1.15,2013-03-12 21:44:00,
2013-03-12 17:50:00,34.8,28.3,29.86,SW,232,9.0,9.0,77,0.00,,,0.03,Wunderground v.1.15,2013-03-12 21:50:00,
2013-03-12 17:55:00,34.7,28.2,29.86,WSW,248,10.0,15.0,77,0.00,,,0.03,Wunderground v.1.15,2013-03-12 21:55:00,
2013-03-12 18:00:00,34.6,28.1,29.86,SW,226,9.0,10.0,77,0.00,,,0.03,Wunderground v.1.15,2013-03-12 22:00:00,
2013-03-12 18:06:00,34.5,28.0,29.86,WNW,296,8.0,12.0,77,0.00,,,0.03,Wunderground v.1.15,2013-03-12 22:06:00,
2013-03-12 18:12:00,34.6,28.1,29.86,SW,228,8.0,9.0,77,0.00,,,0.03,Wunderground v.1.15,2013-03-12 22:12:00,
2013-03-12 18:18:00,34.6,28.1,29.86,WSW,249,7.0,12.0,77,0.00,,,0.03,Wunderground v.1.15,2013-03-12 22:18:00,
2013-03-12 18:23:00,34.6,28.1,29.86,SSW,202,8.0,14.0,77,0.00,,,0.03,Wunderground v.1.15,2013-03-12 22:23:00,
2013-03-12 18:29:00,34.4,27.6,29.87,SW,235,9.0,14.0,76,0.00,,,0.03,Wunderground v.1.15,2013-03-12 22:29:00,
2013-03-12 18:34:00,34.3,27.8,29.87,SW,226,10.0,11.0,77,0.00,,,0.03,Wunderground v.1.15,2013-03-12 22:34:00,
2013-03-12 18:40:00,34.1,27.6,29.87,SW,229,9.0,12.0,77,0.00,,,0.03,Wunderground v.1.15,2013-03-12 22:40:00,
2013-03-12 18:45:00,34.0,27.9,29.87,WSW,238,8.0,12.0,78,0.00,,,0.03,Wunderground v.1.15,2013-03-12 22:45:00,
2013-03-12 18:51:00,34.0,27.9,29.87,SW,220,6.0,6.0,78,0.00,,,0.03,Wunderground v.1.15,2013-03-12 22:51:00,
2013-03-12 18:56:00,33.9,27.8,29.87,West,279,6.0,8.0,78,0.00,,,0.03,Wunderground v.1.15,2013-03-12 22:56:00,
2013-03-12 19:01:00,33.9,27.8,29.87,SW,224,6.0,8.0,78,0.00,,,0.03,Wunderground v.1.15,2013-03-12 23:01:00,
2013-03-12 19:07:00,33.8,28.0,29.88,SW,236,6.0,12.0,79,0.00,,,0.03,Wunderground v.1.15,2013-03-12 23:07:00,
2013-03-12 19:12:00,33.7,27.9,29.88,SW,229,7.0,12.0,79,0.00,,,0.03,Wunderground v.1.15,2013-03-12 23:12:00,
2013-03-12 19:18:00,33.5,27.7,29.88,SW,222,9.0,12.0,79,0.00,,,0.03,Wunderground v.1.15,2013-03-12 23:18:00,
2013-03-12 19:24:00,33.4,27.9,29.88,WNW,290,7.0,13.0,80,0.00,,,0.03,Wunderground v.1.15,2013-03-12 23:24:00,
2013-03-12 19:30:00,33.2,28.0,29.88,WNW,301,6.0,6.0,81,0.00,,,0.03,Wunderground v.1.15,2013-03-12 23:30:00,
2013-03-12 19:36:00,33.1,28.2,29.89,West,265,6.0,9.0,82,0.00,,,0.03,Wunderground v.1.15,2013-03-12 23:36:00,
2013-03-12 19:42:00,32.8,28.2,29.89,WSW,239,6.0,8.0,83,0.00,,,0.03,Wunderground v.1.15,2013-03-12 23:42:00,
2013-03-12 19:47:00,32.6,28.3,29.89,West,271,6.0,8.0,84,0.00,,,0.03,Wunderground v.1.15,2013-03-12 23:47:00,
2013-03-12 19:53:00,32.5,28.5,29.89,WSW,255,5.0,6.0,85,0.00,,,0.03,Wunderground v.1.15,2013-03-12 23:53:00,
2013-03-12 19:59:00,32.4,28.7,29.89,SW,217,4.0,7.0,86,0.00,,,0.03,Wunderground v.1.15,2013-03-12 23:59:00,
2013-03-12 20:04:00,32.4,28.7,29.89,SW,233,5.0,7.0,86,0.00,,,0.03,Wunderground v.1.15,2013-03-13 00:04:00,
2013-03-12 20:09:00,32.4,28.7,29.89,SW,227,5.0,8.0,86,0.00,,,0.03,Wunderground v.1.15,2013-03-13 00:09:00,
2013-03-12 20:15:00,32.4,28.7,29.89,SW,232,6.0,8.0,86,0.00,,,0.03,Wunderground v.1.15,2013-03-13 00:15:00,
2013-03-12 20:20:00,32.4,28.7,29.89,NW,306,6.0,10.0,86,0.00,,,0.03,Wunderground v.1.15,2013-03-13 00:20:00,
2013-03-12 20:26:00,32.3,28.9,29.89,WSW,237,6.0,8.0,87,0.00,,,0.03,Wunderground v.1.15,2013-03-13 00:26:00,
2013-03-12 20:32:00,32.3,28.9,29.89,WSW,251,4.0,5.0,87,0.00,,,0.03,Wunderground v.1.15,2013-03-13 00:32:00,
2013-03-12 20:38:00,32.1,28.9,29.89,SW,222,4.0,8.0,88,0.00,,,0.03,Wunderground v.1.15,2013-03-13 00:38:00,
2013-03-12 20:44:00,31.9,28.8,29.89,WSW,244,5.0,11.0,88,0.00,,,0.03,Wunderground v.1.15,2013-03-13 00:44:00,
2013-03-12 20:49:00,32.0,29.1,29.89,SSW,213,6.0,11.0,89,0.00,,,0.03,Wunderground v.1.15,2013-03-13 00:49:00,
2013-03-12 20:55:00,32.0,29.1,29.89,SW,217,5.0,6.0,89,0.00,,,0.03,Wunderground v.1.15,2013-03-13 00:55:00,
2013-03-12 21:00:00,32.0,29.1,29.89,SW,220,4.0,4.0,89,0.00,,,0.03,Wunderground v.1.15,2013-03-13 01:00:00,
2013-03-12 21:06:00,32.0,29.4,29.90,SW,230,3.0,5.0,90,0.00,,,0.03,Wunderground v.1.15,2013-03-13 01:06:00,
2013-03-12 21:11:00,31.9,29.3,29.89,WSW,240,3.0,7.0,90,0.00,,,0.03,Wunderground v.1.15,2013-03-13 01:11:00,
2013-03-12 21:17:00,31.9,29.3,29.89,SW,233,4.0,9.0,90,0.00,,,0.03,Wunderground v.1.15,2013-03-13 01:17:00,
2013-03-12 21:22:00,31.8,28.9,29.89,SW,232,3.0,4.0,89,0.00,,,0.03,Wunderground v.1.15,2013-03-13 01:22:00,
2013-03-12 21:28:00,31.7,28.8,29.89,SW,228,3.0,6.0,89,0.00,,,0.03,Wunderground v.1.15,2013-03-13 01:28:00,
2013-03-12 21:33:00,31.6,28.7,29.90,WSW,237,4.0,7.0,89,0.00,,,0.03,Wunderground v.1.15,2013-03-13 01:33:00,
2013-03-12 21:39:00,31.6,28.5,29.90,SW,236,6.0,8.0,88,0.00,,,0.03,Wunderground v.1.15,2013-03-13 01:39:00,
2013-03-12 21:45:00,31.5,28.4,29.90,SW,225,6.0,9.0,88,0.00,,,0.03,Wunderground v.1.15,2013-03-13 01:45:00,
2013-03-12 21:51:00,31.5,28.1,29.90,WSW,244,6.0,7.0,87,0.00,,,0.03,Wunderground v.1.15,2013-03-13 01:51:00,
2013-03-12 21:57:00,31.5,28.1,29.90,SW,234,6.0,7.0,87,0.00,,,0.03,Wunderground v.1.15,2013-03-13 01:57:00,
2013-03-12 22:02:00,31.4,28.0,29.90,SW,235,6.0,6.0,87,0.00,,,0.03,Wunderground v.1.15,2013-03-13 02:02:00,
2013-03-12 22:08:00,31.3,27.6,29.90,SSW,206,5.0,6.0,86,0.00,,,0.03,Wunderground v.1.15,2013-03-13 02:08:00,
2013-03-12 22:13:00,31.2,27.5,29.90,SW,226,5.0,6.0,86,0.00,,,0.03,Wunderground v.1.15,2013-03-13 02:13:00,
2013-03-12 22:18:00,31.1,27.4,29.90,South,171,5.0,6.0,86,0.00,,,0.03,Wunderground v.1.15,2013-03-13 02:18:00,
2013-03-12 22:23:00,31.0,27.3,29.90,SW,232,5.0,5.0,86,0.00,,,0.03,Wunderground v.1.15,2013-03-13 02:23:00,
2013-03-12 22:29:00,30.9,26.9,29.90,WSW,238,5.0,5.0,85,0.00,,,0.03,Wunderground v.1.15,2013-03-13 02:29:00,
2013-03-12 22:34:00,30.8,26.8,29.90,SW,227,4.0,4.0,85,0.00,,,0.03,Wunderground v.1.15,2013-03-13 02:34:00,
2013-03-12 22:40:00,30.7,26.7,29.90,SW,229,4.0,6.0,85,0.00,,,0.03,Wunderground v.1.15,2013-03-13 02:40:00,
2013-03-12 22:45:00,30.7,26.7,29.90,SW,221,4.0,9.0,85,0.00,,,0.03,Wunderground v.1.15,2013-03-13 02:45:00,
2013-03-12 22:51:00,30.7,26.7,29.90,SW,219,4.0,6.0,85,0.00,,,0.03,Wunderground v.1.15,2013-03-13 02:51:00,
2013-03-12 22:56:00,30.7,26.4,29.90,SW,223,5.0,6.0,84,0.00,,,0.03,Wunderground v.1.15,2013-03-13 02:56:00,
2013-03-12 23:02:00,30.7,26.4,29.90,SW,220,4.0,4.0,84,0.00,,,0.03,Wunderground v.1.15,2013-03-13 03:02:00,
2013-03-12 23:08:00,30.7,26.4,29.90,SSW,208,4.0,5.0,84,0.00,,,0.03,Wunderground v.1.15,2013-03-13 03:08:00,
2013-03-12 23:14:00,30.7,26.4,29.90,SW,220,4.0,5.0,84,0.00,,,0.03,Wunderground v.1.15,2013-03-13 03:14:00,
2013-03-12 23:19:00,30.7,26.4,29.90,SW,223,3.0,5.0,84,0.00,,,0.03,Wunderground v.1.15,2013-03-13 03:19:00,
2013-03-12 23:24:00,30.8,26.5,29.89,SW,225,4.0,5.0,84,0.00,,,0.03,Wunderground v.1.15,2013-03-13 03:24:00,
2013-03-12 23:29:00,30.8,26.5,29.90,SSW,205,4.0,5.0,84,0.00,,,0.03,Wunderground v.1.15,2013-03-13 03:29:00,
2013-03-12 23:35:00,31.0,26.4,29.89,WSW,241,5.0,7.0,83,0.00,,,0.03,Wunderground v.1.15,2013-03-13 03:35:00,
2013-03-12 23:40:00,31.0,26.4,29.89,SSW,193,6.0,9.0,83,0.00,,,0.03,Wunderground v.1.15,2013-03-13 03:40:00,
2013-03-12 23:46:00,31.1,26.5,29.89,SSW,201,6.0,6.0,83,0.00,,,0.03,Wunderground v.1.15,2013-03-13 03:46:00,
2013-03-12 23:51:00,31.1,26.5,29.89,SW,229,5.0,5.0,83,0.00,,,0.03,Wunderground v.1.15,2013-03-13 03:51:00,
2013-03-12 23:56:00,31.1,26.5,29.89,SSW,210,4.0,5.0,83,0.00,,,0.03,Wunderground v.1.15,2013-03-13 03:56:00,